Regional Weather Roundup
Issued by NWS Kansas City/Pleasant Hill, MO

Home | Current Version | Previous Version | Text Only | Print | Product List | Glossary On
Versions: 1 2 3 4 5 6 7 8 9 10 11 12 13 14 15 16 17 18 19 20 21 22 23 24 25 26 27
000
ASUS43 KEAX 231110
RWREAX

WEATHER ROUNDUP FOR EASTERN KANSAS AND NORTHWEST MISSOURI
NATIONAL WEATHER SERVICE KANSAS CITY/PLEASANT HILL MO
500 AM CST THU FEB 23 2017

KSZ040-057-103>105-MOZ028-029-037-043-231200-
...KANSAS CITY METROPOLITAN AREA...

CITY           SKY/WX    TMP DP  RH WIND       PRES   REMARKS
K.C. INTL      CLOUDY    50  41  71 NE13      29.69S
K.C. DOWNTOWN  CLOUDY    53  41  63 NE9       29.69R
LEES SUMMIT    CLOUDY    51  41  68 NE16      29.68F
OLATHE - IXD   MOCLDY    53  39  59 NE12      29.69R
OLATHE - OJC   CLOUDY    52  41  66 E9        29.69R
LAWRENCE       CLOUDY    52  40  63 NE10      29.70R

$$

MOZ001>008-011>017-020>025-030>033-038>040-044>046-053-054-231200-
...NORTHERN AND CENTRAL MISSOURI...

CITY           SKY/WX    TMP DP  RH WIND       PRES   REMARKS
ST. JOSEPH     CLOUDY    49  40  71 NE12      29.73R
WARRENSBURG    CLOUDY    50  39  66 NE13      29.67F
WHITEMAN AFB   MOCLDY    51  48  89 NE13      29.66F
CLINTON        CLOUDY    48  46  93 E5        29.65F
SEDALIA        CLOUDY    51  48  89 NE7       29.69S
WARSAW         NOT AVBL
CHILLICOTHE      N/A     47  41  80 N3        29.73R
KIRKSVILLE     PTCLDY    42  39  89 NE12      29.72F

$$

MOZ041-047>049-056>058-063>065-088>090-097-231200-
...EASTERN AND SOUTHERN MISSOURI...

CITY           SKY/WX    TMP DP  RH WIND       PRES   REMARKS
ST. LOUIS INTL PTCLDY    52  49  89 CALM      29.73S
SPIRIT OF STL  FOG       47  47 100 CALM      29.72S VSB 1/4
COLUMBIA       FOG       50  50 100 E5        29.70S VSB 1/4
JEFFERSON CITY FOG       43  43 100 SE3       29.70S VSB 1/4
ROLLA          FOG       52  52 100 E5        29.69S VSB 1/4
OSAGE BEACH    LGT RAIN  53  52  96 SE3       29.70S VSB 1/4
SPRINGFIELD    FOG       53  53 100 S14       29.68R VSB 1/2
BRANSON        FOG       50  50 100 E6        29.71F VSB<1/4
JOPLIN         CLEAR     57  54  89 S10       29.64S
WEST PLAINS    FOG       52  51  97 S5        29.75S VSB 1/4

$$

IAZ060-094-KSZ022-034>040-054-083-096-NEZ052-066-093-231200-
...KANSAS...SOUTHEAST NEBRASKA AND IOWA...

CITY           SKY/WX    TMP DP  RH WIND       PRES   REMARKS
TOPEKA         CLOUDY    52  39  61 NE7       29.72R
MANHATTAN      CLOUDY    51  39  63 NE13      29.70R
EMPORIA        CLOUDY    52  39  61 NE12      29.66R
CHANUTE        PTCLDY    48  44  86 CALM      29.63F
WICHITA        MOCLDY    48  43  82 NE9       29.58F
OMAHA          CLOUDY    39  34  82 N20       29.80R WCI  29
LINCOLN        CLOUDY    40  37  89 NE20      29.78S WCI  30
FALLS CITY     CLOUDY    44  38  79 N6        29.75R
LAMONI         MOCLDY    40  38  93 NE15      29.74S WCI  32
DES MOINES     CLOUDY    40  36  86 N15G22    29.81R WCI  32

$$





USA.gov is the U.S. government's official web portal to all federal, state and local government web resources and services.